Location: North Evanston
(42.0634°N, 87.6976°W)
Time: 06:14:14
(UTC+00:00)

Vanguard 3 - Pass Details

Date: 15 May 2026
Orbit: 507 x 3204 km, 33.3° (Epoch: 8 June)

Event Time Altitude Azimuth Distance (km) Brightness Sun altitude
Rises 02:42:30 0° 278° (W) 6,457 12.6 -15.7°
Reaches altitude 10° 02:49:46 10° 260° (W) 4,866 11.5 -16.6°
Maximum altitude 02:55:59 15° 231° (SW) 3,867 10.6 -17.4°
Drops below altitude 10° 03:00:57 10° 201° (SSW) 3,708 10.2 -18.0°
Enters shadow 03:02:56 - 189° (S) 3,861 10.2 -18.3°
